| time (UTC) | temp F | wind direction | speed knots | gust knots | rain 1hr in | rain 24hr in | rain mn in | humidity % | barometer mb |
| 20260502212703 | 66 | 353 | 0.0 | 11.3 | 0.00 | 0.00 | 0.00 | 28 | 1011.2 |
| 20260502212204 | 66 | 297 | 0.9 | 11.3 | 0.00 | 0.00 | 0.00 | 27 | 1011.3 |
| 20260502211203 | 67 | 312 | 1.7 | 7.8 | 0.00 | 0.00 | 0.00 | 26 | 1011.5 |
| 20260502210703 | 67 | 301 | 2.6 | 10.4 | 0.00 | 0.00 | 0.00 | 26 | 1011.6 |
| 20260502210203 | 67 | 355 | 1.7 | 10.4 | 0.00 | 0.00 | 0.00 | 27 | 1011.6 |
| 20260502205702 | 66 | 335 | 0.9 | 7.8 | 0.00 | 0.00 | 0.00 | 26 | 1011.8 |
| 20260502204703 | 68 | 266 | 1.7 | 10.4 | 0.00 | 0.00 | 0.00 | 25 | 1012.0 |
| 20260502204203 | 67 | 322 | 2.6 | 10.4 | 0.00 | 0.00 | 0.00 | 26 | 1012.1 |
| 20260502203703 | 67 | 306 | 0.9 | 8.7 | 0.00 | 0.00 | 0.00 | 27 | 1012.1 |
| 20260502202703 | 67 | 343 | 2.6 | 10.4 | 0.00 | 0.00 | 0.00 | 26 | 1012.4 |
| 20260502202203 | 67 | 331 | 0.9 | 8.7 | 0.00 | 0.00 | 0.00 | 28 | 1012.4 |
| 20260502201703 | 67 | 313 | 1.7 | 10.4 | 0.00 | 0.00 | 0.00 | 28 | 1012.6 |
| 20260502201204 | 67 | 279 | 3.5 | 10.4 | 0.00 | 0.00 | 0.00 | 27 | 1012.6 |
| 20260502200703 | 66 | 314 | 0.9 | 6.1 | 0.00 | 0.00 | 0.00 | 27 | 1012.7 |
| 20260502200203 | 66 | 213 | 1.7 | 7.0 | 0.00 | 0.00 | 0.00 | 27 | 1012.8 |
| 20260502195703 | 66 | 1 | 0.9 | 8.7 | 0.00 | 0.00 | 0.00 | 27 | 1012.9 |
| 20260502195203 | 66 | 337 | 1.7 | 8.7 | 0.00 | 0.00 | 0.00 | 28 | 1013.1 |
| 20260502194704 | 66 | 326 | 0.9 | 13.0 | 0.00 | 0.00 | 0.00 | 27 | 1013.1 |
| 20260502194203 | 66 | 331 | 1.7 | 13.0 | 0.00 | 0.00 | 0.00 | 28 | 1013.3 |
| 20260502193703 | 65 | 324 | 2.6 | 11.3 | 0.00 | 0.00 | 0.00 | 27 | 1013.4 |
| 20260502193203 | 65 | 326 | 1.7 | 10.4 | 0.00 | 0.00 | 0.00 | 28 | 1013.4 |
| 20260502192703 | 65 | 334 | 2.6 | 10.4 | 0.00 | 0.00 | 0.00 | 28 | 1013.5 |
| 20260502192203 | 65 | 312 | 1.7 | 7.0 | 0.00 | 0.00 | 0.00 | 28 | 1013.6 |
| 20260502191204 | 65 | 301 | 0.9 | 10.4 | 0.00 | 0.00 | 0.00 | 28 | 1013.7 |
| 20260502190703 | 64 | 344 | 0.9 | 8.7 | 0.00 | 0.00 | 0.00 | 29 | 1013.9 |
| 20260502190202 | 64 | 348 | 1.7 | 10.4 | 0.00 | 0.00 | 0.00 | 28 | 1013.9 |
| 20260502185703 | 64 | 344 | 1.7 | 10.4 | 0.00 | 0.00 | 0.00 | 27 | 1014.1 |
| 20260502185203 | 64 | 324 | 2.6 | 10.4 | 0.00 | 0.00 | 0.00 | 29 | 1014.2 |
| 20260502184703 | 63 | 312 | 1.7 | 10.4 | 0.00 | 0.00 | 0.00 | 28 | 1014.3 |
| 20260502184204 | 63 | 17 | 1.7 | 13.0 | 0.00 | 0.00 | 0.00 | 26 | 1014.3 |
| 20260502183703 | 63 | 358 | 1.7 | 13.0 | 0.00 | 0.00 | 0.00 | 28 | 1014.4 |
| 20260502183203 | 62 | 260 | 3.5 | 8.7 | 0.00 | 0.00 | 0.00 | 29 | 1014.6 |
| 20260502182703 | 62 | 340 | 2.6 | 8.7 | 0.00 | 0.00 | 0.00 | 28 | 1014.7 |
| 20260502182203 | 62 | 238 | 2.6 | 10.4 | 0.00 | 0.00 | 0.00 | 28 | 1014.7 |
| 20260502181703 | 62 | 327 | 0.9 | 10.4 | 0.00 | 0.00 | 0.00 | 30 | 1014.9 |
| 20260502181203 | 61 | 219 | 0.9 | 10.4 | 0.00 | 0.00 | 0.00 | 31 | 1015.0 |
| 20260502180703 | 61 | 227 | 4.3 | 10.4 | 0.00 | 0.00 | 0.00 | 30 | 1015.1 |
| 20260502180203 | 61 | 260 | 0.9 | 6.1 | 0.00 | 0.00 | 0.00 | 31 | 1015.1 |
| 20260502170203 | 58 | 303 | 1.7 | 7.0 | 0.00 | 0.00 | 0.00 | 31 | 1016.1 |
| 20260502164204 | 57 | 284 | 1.7 | 8.7 | 0.00 | 0.00 | 0.00 | 32 | 1016.3 |
| 20260502163703 | 56 | 297 | 0.0 | 8.7 | 0.00 | 0.00 | 0.00 | 32 | 1016.3 |
| 20260502162703 | 56 | 23 | 0.9 | 11.3 | 0.00 | 0.00 | 0.00 | 31 | 1016.5 |
| 20260502162203 | 56 | 338 | 1.7 | 11.3 | 0.00 | 0.00 | 0.00 | 32 | 1016.6 |
| 20260502161703 | 56 | 325 | 1.7 | 8.7 | 0.00 | 0.00 | 0.00 | 33 | 1016.6 |
| 20260502160703 | 55 | 34 | 0.0 | 5.2 | 0.00 | 0.00 | 0.00 | 36 | 1016.7 |
| 20260502160203 | 55 | 323 | 0.0 | 4.3 | 0.00 | 0.00 | 0.00 | 35 | 1016.7 |
| 20260502152204 | 53 | 6 | 0.9 | 8.7 | 0.00 | 0.00 | 0.00 | 38 | 1017.1 |
| 20260502151704 | 53 | 350 | 0.9 | 8.7 | 0.00 | 0.00 | 0.00 | 41 | 1017.2 |
| 20260502151203 | 52 | 247 | 0.9 | 8.7 | 0.00 | 0.00 | 0.00 | 41 | 1017.2 |
| 20260502150703 | 52 | 357 | 1.7 | 8.7 | 0.00 | 0.00 | 0.00 | 39 | 1017.2 |
| 20260502150203 | 52 | 276 | 0.9 | 6.1 | 0.00 | 0.00 | 0.00 | 42 | 1017.3 |
| 20260502130703 | 44 | 0 | 0.0 | 5.2 | 0.00 | 0.00 | 0.00 | 52 | 1017.6 |
| 20260502130204 | 44 | 0 | 0.0 | 6.1 | 0.00 | 0.00 | 0.00 | 53 | 1017.7 |
| 20260502123704 | 42 | 4 | 0.0 | 2.6 | 0.00 | 0.00 | 0.00 | 57 | 1017.6 |
| 20260502122703 | 41 | 334 | 0.0 | 2.6 | 0.00 | 0.00 | 0.00 | 57 | 1017.6 |
| 20260502121204 | 41 | 333 | 0.0 | 0.0 | 0.00 | 0.00 | 0.00 | 58 | 1017.4 |
| 20260502120203 | 41 | 333 | 0.0 | 2.6 | 0.00 | 0.00 | 0.00 | 58 | 1017.5 |
| 20260502115703 | 41 | 333 | 0.0 | 2.6 | 0.00 | 0.00 | 0.00 | 57 | 1017.5 |
| 20260502115204 | 41 | 330 | 0.0 | 0.9 | 0.00 | 0.00 | 0.00 | 58 | 1017.5 |
| 20260502114704 | 40 | 330 | 0.0 | 0.9 | 0.00 | 0.00 | 0.00 | 58 | 1017.5 |
| 20260502113704 | 40 | 330 | 0.0 | 0.0 | 0.00 | 0.00 | 0.00 | 58 | 1017.5 |
| 20260502113204 | 40 | 330 | 0.0 | 1.7 | 0.00 | 0.00 | 0.00 | 58 | 1017.5 |
| 20260502112203 | 40 | 265 | 0.0 | 0.0 | 0.00 | 0.00 | 0.00 | 59 | 1017.4 |
| 20260502111704 | 40 | 265 | 0.0 | 0.0 | 0.00 | 0.00 | 0.00 | 59 | 1017.4 |
| 20260502111204 | 40 | 265 | 0.0 | 0.0 | 0.00 | 0.00 | 0.00 | 60 | 1017.3 |
| 20260502110704 | 40 | 265 | 0.0 | 0.0 | 0.00 | 0.00 | 0.00 | 59 | 1017.3 |
| 20260502105203 | 40 | 265 | 0.0 | 1.7 | 0.00 | 0.00 | 0.00 | 60 | 1017.3 |
| 20260502104703 | 40 | 265 | 0.0 | 2.6 | 0.00 | 0.00 | 0.00 | 60 | 1017.2 |
| 20260502103704 | 40 | 286 | 0.0 | 0.0 | 0.00 | 0.00 | 0.00 | 60 | 1017.3 |
| 20260502103204 | 40 | 286 | 0.0 | 1.7 | 0.00 | 0.00 | 0.00 | 59 | 1017.2 |
| 20260502102203 | 40 | 286 | 0.0 | 1.7 | 0.00 | 0.00 | 0.00 | 59 | 1017.4 |
| 20260502101204 | 40 | 286 | 0.0 | 1.7 | 0.00 | 0.00 | 0.00 | 58 | 1017.2 |
| 20260502091203 | 41 | 290 | 0.0 | 2.6 | 0.00 | 0.00 | 0.00 | 55 | 1017.1 |
| 20260502090703 | 41 | 289 | 0.0 | 5.2 | 0.00 | 0.00 | 0.00 | 54 | 1017.1 |
| 20260502090204 | 41 | 289 | 0.0 | 6.1 | 0.00 | 0.00 | 0.00 | 54 | 1017.1 |
| 20260502071203 | 42 | 287 | 0.9 | 2.6 | 0.00 | 0.00 | 0.00 | 54 | 1017.4 |
| 20260502070703 | 42 | 287 | 0.0 | 2.6 | 0.00 | 0.00 | 0.00 | 55 | 1017.5 |
| 20260502065702 | 42 | 287 | 0.9 | 5.2 | 0.00 | 0.00 | 0.00 | 54 | 1017.6 |
| 20260502064703 | 42 | 286 | 0.9 | 7.8 | 0.00 | 0.00 | 0.00 | 53 | 1017.6 |
| 20260502064202 | 42 | 286 | 0.0 | 1.7 | 0.00 | 0.00 | 0.00 | 54 | 1017.6 |
| 20260502063702 | 42 | 286 | 0.0 | 1.7 | 0.00 | 0.00 | 0.00 | 53 | 1017.7 |
| 20260502063203 | 42 | 286 | 0.0 | 2.6 | 0.00 | 0.00 | 0.00 | 53 | 1017.6 |
| 20260502062702 | 43 | 286 | 0.0 | 2.6 | 0.00 | 0.00 | 0.00 | 53 | 1017.7 |
| 20260502062202 | 43 | 286 | 0.0 | 2.6 | 0.00 | 0.00 | 0.00 | 53 | 1017.7 |
| 20260502061702 | 43 | 286 | 0.0 | 2.6 | 0.00 | 0.00 | 0.00 | 53 | 1017.7 |
| 20260502061202 | 43 | 286 | 0.0 | 1.7 | 0.00 | 0.00 | 0.00 | 54 | 1017.8 |
| 20260502060702 | 43 | 286 | 0.0 | 1.7 | 0.00 | 0.00 | 0.00 | 54 | 1017.7 |
| 20260502055702 | 43 | 286 | 0.0 | 2.6 | 0.00 | 0.00 | 0.00 | 53 | 1017.7 |
| 20260502054202 | 43 | 286 | 0.0 | 1.7 | 0.00 | 0.00 | 0.00 | 53 | 1017.8 |
| 20260502053702 | 43 | 286 | 0.0 | 1.7 | 0.00 | 0.00 | 0.00 | 52 | 1017.7 |
| 20260502053203 | 43 | 286 | 0.0 | 1.7 | 0.00 | 0.00 | 0.00 | 53 | 1017.8 |
| 20260502052702 | 43 | 286 | 0.0 | 2.6 | 0.00 | 0.00 | 0.00 | 52 | 1017.8 |
| 20260502052202 | 43 | 286 | 0.0 | 2.6 | 0.00 | 0.00 | 0.00 | 51 | 1017.8 |
| 20260502051203 | 43 | 285 | 0.0 | 0.0 | 0.00 | 0.00 | 0.00 | 50 | 1017.8 |
| 20260502050702 | 43 | 285 | 0.0 | 0.9 | 0.00 | 0.00 | 0.00 | 50 | 1017.8 |
| 20260502050203 | 43 | 286 | 0.0 | 1.7 | 0.00 | 0.00 | 0.00 | 49 | 1017.7 |
| 20260502045702 | 43 | 285 | 0.0 | 2.6 | 0.00 | 0.00 | 0.00 | 48 | 1017.6 |
| 20260502045202 | 43 | 285 | 0.0 | 2.6 | 0.00 | 0.00 | 0.00 | 48 | 1017.6 |
| 20260502044703 | 44 | 285 | 0.0 | 1.7 | 0.00 | 0.00 | 0.00 | 48 | 1017.6 |
| 20260502044203 | 44 | 285 | 0.0 | 0.9 | 0.00 | 0.00 | 0.00 | 47 | 1017.6 |
| 20260502043703 | 44 | 309 | 0.0 | 0.0 | 0.00 | 0.00 | 0.00 | 48 | 1017.7 |
| 20260502043203 | 44 | 309 | 0.0 | 0.0 | 0.00 | 0.00 | 0.00 | 46 | 1017.7 |
| 20260502042702 | 44 | 309 | 0.0 | 0.0 | 0.00 | 0.00 | 0.00 | 45 | 1017.6 |
| 20260502042202 | 44 | 309 | 0.0 | 0.0 | 0.00 | 0.00 | 0.00 | 45 | 1017.7 |
| 20260502041702 | 44 | 309 | 0.0 | 0.0 | 0.00 | 0.00 | 0.00 | 45 | 1017.6 |
| 20260502041202 | 44 | 309 | 0.0 | 0.0 | 0.00 | 0.00 | 0.00 | 45 | 1017.7 |
| 20260502040702 | 44 | 309 | 0.0 | 0.0 | 0.00 | 0.00 | 0.00 | 45 | 1017.6 |
| 20260502040202 | 44 | 309 | 0.0 | 0.0 | 0.00 | 0.00 | 0.00 | 45 | 1017.7 |
| 20260502035703 | 44 | 309 | 0.0 | 0.0 | 0.00 | 0.00 | 0.00 | 45 | 1017.7 |
| 20260502035203 | 44 | 309 | 0.0 | 0.0 | 0.00 | 0.00 | 0.00 | 45 | 1017.7 |
| 20260502034203 | 45 | 330 | 0.0 | 0.0 | 0.00 | 0.00 | 0.00 | 44 | 1017.7 |
| 20260502033703 | 45 | 333 | 0.0 | 0.0 | 0.00 | 0.00 | 0.00 | 45 | 1017.8 |
| 20260502033203 | 45 | 334 | 0.0 | 0.0 | 0.00 | 0.00 | 0.00 | 45 | 1017.8 |
| 20260502032702 | 45 | 346 | 0.0 | 0.0 | 0.00 | 0.00 | 0.00 | 44 | 1017.8 |
| 20260502032204 | 45 | 349 | 0.0 | 0.0 | 0.00 | 0.00 | 0.00 | 45 | 1017.8 |
| 20260502031702 | 45 | 0 | 0.0 | 0.0 | 0.00 | 0.00 | 0.00 | 44 | 1017.8 |
| 20260502031202 | 45 | 0 | 0.0 | 0.0 | 0.00 | 0.00 | 0.00 | 42 | 1017.7 |
| 20260502030702 | 46 | 0 | 0.0 | 0.0 | 0.00 | 0.00 | 0.00 | 42 | 1017.8 |
| 20260502025703 | 46 | 0 | 0.0 | 0.0 | 0.00 | 0.00 | 0.00 | 41 | 1017.8 |
| 20260502025202 | 46 | 0 | 0.0 | 0.0 | 0.00 | 0.00 | 0.00 | 42 | 1017.7 |
| 20260502024703 | 46 | 0 | 0.0 | 0.0 | 0.00 | 0.00 | 0.00 | 41 | 1017.8 |
| 20260502024202 | 46 | 0 | 0.0 | 0.0 | 0.00 | 0.00 | 0.00 | 41 | 1017.8 |
| 20260502023702 | 46 | 0 | 0.0 | 0.0 | 0.00 | 0.00 | 0.00 | 41 | 1017.8 |
| 20260502022202 | 46 | 0 | 0.0 | 0.0 | 0.00 | 0.00 | 0.00 | 39 | 1017.8 |
| 20260502021703 | 46 | 0 | 0.0 | 0.0 | 0.00 | 0.00 | 0.00 | 39 | 1017.7 |
| 20260502021202 | 47 | 0 | 0.0 | 0.0 | 0.00 | 0.00 | 0.00 | 39 | 1017.7 |
| 20260502020202 | 47 | 0 | 0.0 | 0.0 | 0.00 | 0.00 | 0.00 | 37 | 1017.6 |
| 20260502015703 | 47 | 0 | 0.0 | 0.0 | 0.00 | 0.00 | 0.00 | 38 | 1017.5 |
| 20260502015203 | 47 | 0 | 0.0 | 0.0 | 0.00 | 0.00 | 0.00 | 38 | 1017.5 |
| 20260502014202 | 48 | 0 | 0.0 | 0.0 | 0.00 | 0.00 | 0.00 | 36 | 1017.4 |
| 20260502013703 | 48 | 0 | 0.0 | 0.0 | 0.00 | 0.00 | 0.00 | 35 | 1017.3 |
| 20260502013204 | 49 | 0 | 0.0 | 0.0 | 0.00 | 0.00 | 0.00 | 35 | 1017.3 |
| 20260502012702 | 49 | 0 | 0.0 | 0.0 | 0.00 | 0.00 | 0.00 | 35 | 1017.2 |
| 20260502011702 | 49 | 0 | 0.0 | 0.0 | 0.00 | 0.00 | 0.00 | 33 | 1017.2 |
| 20260502011203 | 50 | 0 | 0.0 | 0.0 | 0.00 | 0.00 | 0.00 | 33 | 1017.2 |
| 20260502010703 | 50 | 0 | 0.0 | 0.0 | 0.00 | 0.00 | 0.00 | 33 | 1017.2 |
| 20260502010203 | 50 | 0 | 0.0 | 0.0 | 0.00 | 0.00 | 0.00 | 33 | 1017.2 |
| 20260502005703 | 50 | 0 | 0.0 | 0.0 | 0.00 | 0.00 | 0.00 | 31 | 1017.2 |
| 20260502005203 | 50 | 0 | 0.0 | 0.0 | 0.00 | 0.00 | 0.00 | 31 | 1017.1 |
| 20260502004703 | 50 | 0 | 0.0 | 1.7 | 0.00 | 0.00 | 0.00 | 31 | 1017.2 |
| 20260502004203 | 51 | 0 | 0.9 | 1.7 | 0.00 | 0.00 | 0.00 | 31 | 1017.2 |
| 20260502003702 | 51 | 0 | 0.9 | 2.6 | 0.00 | 0.00 | 0.00 | 31 | 1017.2 |
| 20260502003204 | 51 | 0 | 0.9 | 5.2 | 0.00 | 0.00 | 0.00 | 31 | 1017.3 |
| 20260502002702 | 51 | 2 | 0.0 | 5.2 | 0.00 | 0.00 | 0.00 | 30 | 1017.3 |
| 20260502002202 | 51 | 40 | 0.0 | 5.2 | 0.00 | 0.00 | 0.00 | 30 | 1017.2 |
| 20260502001703 | 51 | 40 | 0.9 | 5.2 | 0.00 | 0.00 | 0.00 | 29 | 1017.2 |
| 20260502001203 | 51 | 40 | 0.0 | 2.6 | 0.00 | 0.00 | 0.00 | 30 | 1017.2 |
| 20260502000702 | 52 | 40 | 0.0 | 6.1 | 0.00 | 0.00 | 0.00 | 29 | 1017.1 |
| 20260502000203 | 52 | 44 | 0.9 | 7.0 | 0.00 | 0.00 | 0.00 | 28 | 1017.1 |
| 20260501235703 | 52 | 22 | 0.9 | 7.0 | 0.00 | 0.00 | 0.00 | 28 | 1017.2 |
| 20260501235203 | 52 | 1 | 1.7 | 7.0 | 0.00 | 0.00 | 0.00 | 28 | 1017.2 |
| 20260501234203 | 53 | 45 | 0.0 | 7.8 | 0.00 | 0.00 | 0.00 | 26 | 1017.1 |
| 20260501233703 | 53 | 10 | 0.9 | 8.7 | 0.00 | 0.00 | 0.00 | 27 | 1017.1 |
| 20260501233203 | 54 | 46 | 0.0 | 8.7 | 0.00 | 0.00 | 0.00 | 26 | 1017.1 |
| 20260501232702 | 54 | 61 | 2.6 | 7.8 | 0.00 | 0.00 | 0.00 | 25 | 1017.1 |
| 20260501232204 | 54 | 41 | 0.0 | 7.8 | 0.00 | 0.00 | 0.00 | 29 | 1017.1 |
| 20260501231703 | 55 | 5 | 0.9 | 7.8 | 0.00 | 0.00 | 0.00 | 28 | 1017.1 |
| 20260501231203 | 55 | 88 | 0.0 | 2.6 | 0.00 | 0.00 | 0.00 | 30 | 1017.0 |
| 20260501230703 | 55 | 111 | 0.0 | 2.6 | 0.00 | 0.00 | 0.00 | 29 | 1017.1 |
| 20260501230203 | 54 | 43 | 0.9 | 6.1 | 0.00 | 0.00 | 0.00 | 29 | 1017.1 |
| 20260501225703 | 54 | 83 | 1.7 | 6.1 | 0.00 | 0.00 | 0.00 | 32 | 1017.1 |
| 20260501225203 | 54 | 337 | 0.9 | 6.1 | 0.00 | 0.00 | 0.00 | 28 | 1017.1 |
| 20260501224704 | 54 | 0 | 0.9 | 6.1 | 0.00 | 0.00 | 0.00 | 26 | 1017.1 |
| 20260501224203 | 54 | 30 | 0.9 | 7.0 | 0.00 | 0.00 | 0.00 | 28 | 1017.1 |
| 20260501223203 | 54 | 32 | 0.9 | 7.0 | 0.00 | 0.00 | 0.00 | 27 | 1017.2 |
| 20260501222703 | 54 | 40 | 0.9 | 7.8 | 0.00 | 0.00 | 0.00 | 28 | 1017.3 |
| 20260501222203 | 54 | 24 | 3.5 | 8.7 | 0.00 | 0.00 | 0.00 | 27 | 1017.3 |
| 20260501221703 | 54 | 15 | 0.9 | 8.7 | 0.00 | 0.00 | 0.00 | 28 | 1017.3 |
| 20260501221203 | 54 | 11 | 1.7 | 7.8 | 0.00 | 0.00 | 0.00 | 28 | 1017.3 |
| 20260501220703 | 54 | 55 | 0.0 | 4.3 | 0.00 | 0.00 | 0.00 | 29 | 1017.3 |
| 20260501220202 | 53 | 0 | 0.9 | 4.3 | 0.00 | 0.00 | 0.00 | 31 | 1017.3 |
| 20260501215702 | 54 | 32 | 1.7 | 4.3 | 0.00 | 0.00 | 0.00 | 28 | 1017.2 |
| 20260501215202 | 54 | 34 | 0.0 | 7.0 | 0.00 | 0.00 | 0.00 | 29 | 1017.3 |
| 20260501214703 | 54 | 25 | 1.7 | 7.0 | 0.00 | 0.00 | 0.00 | 27 | 1017.2 |
| 20260501213703 | 54 | 28 | 0.9 | 10.4 | 0.00 | 0.00 | 0.00 | 26 | 1017.2 |
| 20260501213203 | 54 | 16 | 0.9 | 10.4 | 0.00 | 0.00 | 0.00 | 27 | 1017.3 |